| time (UTC) | temp F | wind direction | speed knots | gust knots | rain 1hr in | rain 24hr in | rain mn in | humidity % | barometer mb |
| 20260901231541 | 68 | 79 | 0.9 | 0.0 | 0.00 | 0.00 | 0.00 | 90 | 1014.7 |
| 20260901231039 | 68 | 79 | 1.7 | 0.0 | 0.00 | 0.00 | 0.00 | 90 | 1014.6 |
| 20260901230539 | 68 | 80 | 2.6 | 0.0 | 0.00 | 0.00 | 0.00 | 91 | 1014.5 |
| 20260901230045 | 68 | 112 | 3.5 | 0.0 | 0.00 | 0.00 | 0.00 | 90 | 1014.6 |
| 20260901225538 | 68 | 117 | 3.5 | 0.0 | 0.00 | 0.00 | 0.00 | 90 | 1014.6 |
| 20260901225038 | 68 | 121 | 3.5 | 0.0 | 0.00 | 0.00 | 0.00 | 90 | 1014.6 |
| 20260901224539 | 68 | 130 | 1.7 | 0.0 | 0.00 | 0.00 | 0.00 | 90 | 1014.6 |
| 20260901224040 | 69 | 86 | 1.7 | 0.0 | 0.00 | 0.00 | 0.00 | 91 | 1014.7 |
| 20260901223538 | 69 | 98 | 1.7 | 0.0 | 0.00 | 0.00 | 0.00 | 91 | 1014.6 |
| 20260901223038 | 69 | 104 | 1.7 | 0.0 | 0.00 | 0.00 | 0.00 | 90 | 1014.7 |
| 20260901222537 | 69 | 104 | 1.7 | 0.0 | 0.00 | 0.00 | 0.00 | 90 | 1014.5 |
| 20260901222037 | 69 | 47 | 1.7 | 0.0 | 0.00 | 0.00 | 0.00 | 90 | 1014.5 |
| 20260901221603 | 69 | 84 | 1.7 | 0.0 | 0.00 | 0.00 | 0.00 | 90 | 1014.5 |
| 20260901221038 | 69 | 101 | 2.6 | 0.0 | 0.00 | 0.00 | 0.00 | 91 | 1014.3 |
| 20260901220537 | 69 | 111 | 2.6 | 0.0 | 0.00 | 0.00 | 0.00 | 91 | 1014.1 |
| 20260901220038 | 69 | 96 | 2.6 | 0.0 | 0.00 | 0.00 | 0.00 | 90 | 1014.4 |
| 20260901215538 | 69 | 74 | 3.5 | 0.0 | 0.00 | 0.00 | 0.00 | 90 | 1014.5 |
| 20260901215037 | 69 | 67 | 3.5 | 0.0 | 0.00 | 0.00 | 0.00 | 90 | 1014.7 |
| 20260901214537 | 69 | 70 | 3.5 | 0.0 | 0.00 | 0.00 | 0.00 | 90 | 1014.7 |
| 20260901214037 | 69 | 58 | 3.5 | 0.0 | 0.00 | 0.00 | 0.00 | 90 | 1014.7 |
| 20260901213535 | 68 | 57 | 2.6 | 0.0 | 0.00 | 0.00 | 0.00 | 90 | 1014.7 |
| 20260901213057 | 68 | 41 | 1.7 | 0.0 | 0.00 | 0.00 | 0.00 | 90 | 1014.7 |
| 20260901212534 | 68 | 64 | 1.7 | 0.0 | 0.00 | 0.00 | 0.00 | 90 | 1014.6 |
| 20260901212034 | 68 | 51 | 0.9 | 0.0 | 0.00 | 0.00 | 0.00 | 90 | 1014.4 |
| 20260901211541 | 68 | 115 | 0.9 | 0.0 | 0.00 | 0.00 | 0.00 | 90 | 1014.4 |
| 20260901211033 | 68 | 115 | 1.7 | 0.0 | 0.00 | 0.00 | 0.00 | 90 | 1014.4 |
| 20260901210534 | 68 | 121 | 3.5 | 0.0 | 0.00 | 0.00 | 0.00 | 91 | 1014.2 |
| 20260901210038 | 68 | 113 | 4.3 | 0.0 | 0.00 | 0.00 | 0.00 | 91 | 1014.2 |
| 20260901205532 | 68 | 114 | 5.2 | 0.0 | 0.00 | 0.00 | 0.00 | 92 | 1014.1 |
| 20260901205031 | 68 | 112 | 4.3 | 0.0 | 0.00 | 0.00 | 0.00 | 93 | 1014.1 |
| 20260901204530 | 67 | 111 | 2.6 | 0.0 | 0.00 | 0.00 | 0.00 | 93 | 1014.1 |
| 20260901204032 | 67 | 116 | 2.6 | 0.0 | 0.00 | 0.00 | 0.00 | 93 | 1014.1 |
| 20260901203534 | 67 | 119 | 2.6 | 0.0 | 0.00 | 0.00 | 0.00 | 93 | 1014.2 |
| 20260901203040 | 67 | 116 | 1.7 | 0.0 | 0.00 | 0.00 | 0.00 | 94 | 1014.1 |
| 20260901202529 | 67 | 123 | 2.6 | 0.0 | 0.00 | 0.00 | 0.00 | 94 | 1014.2 |
| 20260901202029 | 67 | 123 | 2.6 | 0.0 | 0.00 | 0.00 | 0.00 | 94 | 1014.3 |
| 20260901201529 | 67 | 122 | 0.9 | 0.0 | 0.00 | 0.00 | 0.00 | 94 | 1014.3 |
| 20260901201029 | 67 | 112 | 0.9 | 0.0 | 0.00 | 0.00 | 0.00 | 94 | 1014.4 |
| 20260901200533 | 67 | 111 | 1.7 | 0.0 | 0.00 | 0.00 | 0.00 | 94 | 1014.3 |
| 20260901200039 | 67 | 111 | 2.6 | 0.0 | 0.00 | 0.00 | 0.00 | 94 | 1014.3 |
| 20260901195530 | 67 | 105 | 2.6 | 0.0 | 0.00 | 0.00 | 0.00 | 94 | 1014.3 |
| 20260901195031 | 67 | 92 | 3.5 | 0.0 | 0.00 | 0.00 | 0.00 | 94 | 1014.4 |
| 20260901194529 | 67 | 78 | 3.5 | 0.0 | 0.00 | 0.00 | 0.00 | 95 | 1014.3 |
| 20260901194028 | 67 | 109 | 3.5 | 0.0 | 0.00 | 0.00 | 0.00 | 95 | 1014.3 |
| 20260901193528 | 67 | 126 | 3.5 | 0.0 | 0.00 | 0.00 | 0.00 | 94 | 1014.4 |
| 20260901193029 | 67 | 102 | 2.6 | 0.0 | 0.00 | 0.00 | 0.00 | 94 | 1014.3 |
| 20260901192527 | 67 | 104 | 2.6 | 0.0 | 0.00 | 0.00 | 0.00 | 94 | 1014.3 |
| 20260901192030 | 67 | 111 | 3.5 | 0.0 | 0.00 | 0.00 | 0.00 | 94 | 1014.0 |
| 20260901191528 | 67 | 113 | 3.5 | 0.0 | 0.00 | 0.00 | 0.00 | 94 | 1013.9 |
| 20260901191030 | 67 | 109 | 3.5 | 0.0 | 0.00 | 0.00 | 0.00 | 94 | 1013.9 |
| 20260901190527 | 67 | 133 | 3.5 | 0.0 | 0.00 | 0.00 | 0.00 | 94 | 1014.0 |
| 20260901190027 | 67 | 107 | 4.3 | 0.0 | 0.00 | 0.00 | 0.00 | 94 | 1014.0 |
| 20260901185527 | 67 | 117 | 4.3 | 0.0 | 0.00 | 0.00 | 0.00 | 94 | 1014.0 |
| 20260901185026 | 67 | 107 | 5.2 | 0.0 | 0.00 | 0.00 | 0.00 | 95 | 1014.0 |
| 20260901184532 | 67 | 101 | 5.2 | 0.0 | 0.00 | 0.00 | 0.00 | 95 | 1014.0 |
| 20260901184026 | 67 | 98 | 5.2 | 0.0 | 0.00 | 0.00 | 0.00 | 95 | 1014.0 |
| 20260901183525 | 67 | 113 | 4.3 | 0.0 | 0.00 | 0.00 | 0.00 | 95 | 1014.0 |
| 20260901183025 | 67 | 109 | 3.5 | 0.0 | 0.00 | 0.00 | 0.00 | 95 | 1014.0 |
| 20260901182525 | 67 | 109 | 3.5 | 0.0 | 0.00 | 0.00 | 0.00 | 96 | 1014.0 |
| 20260901182025 | 67 | 108 | 4.3 | 0.0 | 0.00 | 0.00 | 0.00 | 96 | 1013.9 |
| 20260901181524 | 67 | 115 | 4.3 | 0.0 | 0.00 | 0.00 | 0.00 | 96 | 1014.0 |
| 20260901181024 | 67 | 127 | 4.3 | 0.0 | 0.00 | 0.00 | 0.00 | 96 | 1013.9 |
| 20260901180524 | 67 | 132 | 4.3 | 0.0 | 0.00 | 0.00 | 0.00 | 96 | 1014.0 |
| 20260901180023 | 67 | 120 | 4.3 | 0.0 | 0.00 | 0.00 | 0.00 | 96 | 1013.9 |
| 20260901175523 | 67 | 119 | 3.5 | 0.0 | 0.00 | 0.00 | 0.00 | 96 | 1013.9 |
| 20260901175022 | 67 | 119 | 4.3 | 0.0 | 0.00 | 0.00 | 0.00 | 96 | 1013.8 |
| 20260901174523 | 67 | 110 | 5.2 | 0.0 | 0.00 | 0.00 | 0.00 | 95 | 1013.7 |
| 20260901174024 | 67 | 117 | 4.3 | 0.0 | 0.00 | 0.00 | 0.00 | 96 | 1013.7 |
| 20260901173521 | 67 | 116 | 3.5 | 0.0 | 0.00 | 0.00 | 0.00 | 96 | 1013.9 |
| 20260901173021 | 67 | 104 | 3.5 | 0.0 | 0.00 | 0.00 | 0.00 | 96 | 1013.8 |
| 20260901172521 | 67 | 82 | 3.5 | 0.0 | 0.00 | 0.00 | 0.00 | 96 | 1013.9 |
| 20260901172023 | 67 | 83 | 3.5 | 0.0 | 0.00 | 0.00 | 0.00 | 96 | 1013.8 |
| 20260901171524 | 67 | 106 | 4.3 | 0.0 | 0.00 | 0.00 | 0.00 | 96 | 1013.8 |
| 20260901171021 | 67 | 110 | 4.3 | 0.0 | 0.00 | 0.00 | 0.00 | 96 | 1013.7 |
| 20260901170521 | 67 | 109 | 4.3 | 0.0 | 0.00 | 0.00 | 0.00 | 96 | 1013.7 |
| 20260901170020 | 67 | 107 | 3.5 | 0.0 | 0.00 | 0.00 | 0.00 | 96 | 1013.7 |
| 20260901165521 | 67 | 109 | 2.6 | 0.0 | 0.00 | 0.00 | 0.00 | 96 | 1013.6 |
| 20260901165022 | 67 | 88 | 2.6 | 0.0 | 0.00 | 0.00 | 0.00 | 96 | 1013.6 |
| 20260901164520 | 67 | 122 | 2.6 | 0.0 | 0.00 | 0.00 | 0.00 | 97 | 1013.7 |
| 20260901164020 | 67 | 105 | 2.6 | 0.0 | 0.00 | 0.00 | 0.00 | 96 | 1013.7 |
| 20260901163518 | 66 | 92 | 0.9 | 0.0 | 0.00 | 0.00 | 0.00 | 96 | 1013.9 |
| 20260901163018 | 66 | 102 | 0.9 | 0.0 | 0.00 | 0.00 | 0.00 | 96 | 1014.0 |
| 20260901162518 | 66 | 102 | 0.9 | 0.0 | 0.00 | 0.00 | 0.00 | 96 | 1014.1 |
| 20260901162020 | 66 | 102 | 0.9 | 0.0 | 0.00 | 0.00 | 0.00 | 96 | 1014.0 |
| 20260901161517 | 66 | 93 | 1.7 | 0.0 | 0.00 | 0.00 | 0.00 | 96 | 1014.0 |
| 20260901161017 | 66 | 68 | 1.7 | 0.0 | 0.00 | 0.00 | 0.00 | 96 | 1014.1 |
| 20260901160515 | 66 | 64 | 0.9 | 0.0 | 0.00 | 0.00 | 0.00 | 96 | 1014.1 |
| 20260901160021 | 66 | 98 | 0.0 | 0.0 | 0.00 | 0.00 | 0.00 | 96 | 1014.0 |
| 20260901155516 | 66 | 98 | 0.0 | 0.0 | 0.00 | 0.00 | 0.00 | 96 | 1014.2 |
| 20260901155016 | 66 | 98 | 0.9 | 0.0 | 0.00 | 0.00 | 0.00 | 96 | 1014.0 |
| 20260901154518 | 66 | 98 | 1.7 | 0.0 | 0.00 | 0.00 | 0.00 | 96 | 1014.1 |
| 20260901154017 | 66 | 98 | 1.7 | 0.0 | 0.00 | 0.00 | 0.00 | 96 | 1014.0 |
| 20260901153518 | 66 | 100 | 1.7 | 0.0 | 0.00 | 0.00 | 0.00 | 96 | 1014.0 |
| 20260901153020 | 66 | 86 | 0.9 | 0.0 | 0.00 | 0.00 | 0.00 | 96 | 1014.1 |
| 20260901152514 | 66 | 238 | 0.9 | 0.0 | 0.00 | 0.00 | 0.00 | 95 | 1014.0 |
| 20260901152015 | 66 | 238 | 0.9 | 0.0 | 0.00 | 0.00 | 0.00 | 96 | 1013.9 |
| 20260901151516 | 66 | 225 | 0.9 | 0.0 | 0.00 | 0.00 | 0.00 | 96 | 1013.9 |
| 20260901151014 | 66 | 224 | 0.9 | 0.0 | 0.00 | 0.00 | 0.00 | 96 | 1013.8 |
| 20260901150513 | 66 | 222 | 0.9 | 0.0 | 0.00 | 0.00 | 0.00 | 96 | 1013.5 |
| 20260901150013 | 66 | 222 | 1.7 | 0.0 | 0.00 | 0.00 | 0.00 | 96 | 1013.5 |
| 20260901145515 | 66 | 215 | 1.7 | 0.0 | 0.00 | 0.00 | 0.00 | 96 | 1013.3 |
| 20260901145013 | 66 | 190 | 1.7 | 0.0 | 0.00 | 0.00 | 0.00 | 96 | 1013.0 |
| 20260901144513 | 66 | 219 | 0.9 | 0.0 | 0.00 | 0.00 | 0.00 | 96 | 1012.9 |
| 20260901144012 | 66 | 142 | 2.6 | 0.0 | 0.00 | 0.00 | 0.00 | 96 | 1013.0 |
| 20260901143511 | 66 | 171 | 4.3 | 0.0 | 0.00 | 0.00 | 0.00 | 96 | 1013.3 |
| 20260901143011 | 66 | 135 | 7.0 | 0.0 | 0.00 | 0.00 | 0.00 | 96 | 1013.1 |
| 20260901142510 | 66 | 327 | 5.2 | 0.0 | 0.00 | 0.00 | 0.00 | 96 | 1014.9 |
| 20260901142013 | 66 | 331 | 1.7 | 0.0 | 0.00 | 0.00 | 0.00 | 96 | 1014.8 |
| 20260901141509 | 66 | 117 | 0.0 | 0.0 | 0.00 | 0.00 | 0.00 | 96 | 1014.0 |
| 20260901141012 | 66 | 117 | 0.9 | 0.0 | 0.00 | 0.00 | 0.00 | 96 | 1013.8 |
| 20260901140509 | 66 | 142 | 0.0 | 0.0 | 0.00 | 0.00 | 0.00 | 96 | 1013.9 |
| 20260901140014 | 66 | 143 | 0.0 | 0.0 | 0.00 | 0.00 | 0.00 | 96 | 1013.9 |
| 20260901135513 | 66 | 142 | 0.0 | 0.0 | 0.00 | 0.00 | 0.00 | 96 | 1013.8 |
| 20260901135009 | 66 | 142 | 0.9 | 0.0 | 0.00 | 0.00 | 0.00 | 96 | 1013.7 |
| 20260901134509 | 66 | 142 | 0.9 | 0.0 | 0.00 | 0.00 | 0.00 | 96 | 1013.7 |
| 20260901134008 | 66 | 144 | 0.0 | 0.0 | 0.00 | 0.00 | 0.00 | 96 | 1013.8 |
| 20260901133507 | 66 | 144 | 0.0 | 0.0 | 0.00 | 0.00 | 0.00 | 96 | 1013.9 |
| 20260901133008 | 66 | 142 | 0.0 | 0.0 | 0.00 | 0.00 | 0.00 | 96 | 1013.8 |
| 20260901132508 | 66 | 142 | 0.0 | 0.0 | 0.00 | 0.00 | 0.00 | 96 | 1013.7 |
| 20260901132006 | 66 | 142 | 0.0 | 0.0 | 0.00 | 0.00 | 0.00 | 96 | 1013.8 |
| 20260901131520 | 66 | 142 | 0.0 | 0.0 | 0.00 | 0.00 | 0.00 | 96 | 1013.9 |
| 20260901131010 | 66 | 142 | 0.0 | 0.0 | 0.00 | 0.00 | 0.00 | 96 | 1014.0 |
| 20260901130507 | 65 | 142 | 0.0 | 0.0 | 0.00 | 0.00 | 0.00 | 97 | 1014.0 |
| 20260901130007 | 65 | 142 | 0.0 | 0.0 | 0.00 | 0.00 | 0.00 | 97 | 1014.1 |
| 20260901125507 | 65 | 142 | 0.0 | 0.0 | 0.00 | 0.00 | 0.00 | 96 | 1014.3 |
| 20260901125006 | 65 | 142 | 0.0 | 0.0 | 0.00 | 0.00 | 0.00 | 96 | 1014.3 |
| 20260901124506 | 65 | 142 | 0.0 | 0.0 | 0.00 | 0.00 | 0.00 | 96 | 1014.4 |
| 20260901124006 | 65 | 142 | 0.0 | 0.0 | 0.00 | 0.00 | 0.00 | 96 | 1014.3 |
| 20260901123505 | 65 | 142 | 0.0 | 0.0 | 0.00 | 0.00 | 0.00 | 96 | 1014.4 |
| 20260901123005 | 65 | 142 | 0.0 | 0.0 | 0.00 | 0.00 | 0.00 | 96 | 1014.4 |
| 20260901122505 | 65 | 142 | 0.9 | 0.0 | 0.00 | 0.00 | 0.00 | 96 | 1014.4 |
| 20260901122004 | 65 | 142 | 1.7 | 0.0 | 0.00 | 0.00 | 0.00 | 96 | 1014.5 |
| 20260901121504 | 65 | 139 | 2.6 | 0.0 | 0.00 | 0.00 | 0.00 | 96 | 1014.4 |
| 20260901121005 | 65 | 101 | 3.5 | 0.0 | 0.00 | 0.00 | 0.00 | 96 | 1014.4 |
| 20260901120504 | 65 | 71 | 3.5 | 0.0 | 0.00 | 0.00 | 0.00 | 96 | 1014.5 |
| 20260901120004 | 65 | 70 | 4.3 | 0.0 | 0.00 | 0.00 | 0.00 | 96 | 1014.7 |
| 20260901115503 | 65 | 106 | 4.3 | 0.0 | 0.00 | 0.00 | 0.00 | 96 | 1014.5 |
| 20260901115003 | 65 | 56 | 4.3 | 0.0 | 0.00 | 0.00 | 0.00 | 96 | 1014.9 |
| 20260901114509 | 65 | 51 | 3.5 | 0.0 | 0.00 | 0.00 | 0.00 | 96 | 1014.8 |
| 20260901114003 | 65 | 50 | 1.7 | 0.0 | 0.00 | 0.00 | 0.00 | 96 | 1014.7 |
| 20260901113503 | 65 | 67 | 1.7 | 0.0 | 0.00 | 0.00 | 0.00 | 96 | 1014.5 |
| 20260901113003 | 65 | 86 | 1.7 | 0.0 | 0.00 | 0.00 | 0.00 | 96 | 1014.4 |
| 20260901112502 | 65 | 121 | 2.6 | 0.0 | 0.00 | 0.00 | 0.00 | 96 | 1014.5 |
| 20260901112002 | 65 | 122 | 3.5 | 0.0 | 0.00 | 0.00 | 0.00 | 96 | 1014.4 |
| 20260901111502 | 65 | 132 | 2.6 | 0.0 | 0.00 | 0.00 | 0.00 | 96 | 1014.3 |
| 20260901111001 | 65 | 31 | 1.7 | 0.0 | 0.00 | 0.00 | 0.00 | 96 | 1014.5 |
| 20260901110503 | 65 | 99 | 0.9 | 0.0 | 0.00 | 0.00 | 0.00 | 96 | 1014.5 |
| 20260901110002 | 65 | 109 | 1.7 | 0.0 | 0.00 | 0.00 | 0.00 | 96 | 1014.7 |
| 20260901105505 | 65 | 110 | 1.7 | 0.0 | 0.00 | 0.00 | 0.00 | 96 | 1014.4 |
| 20260901105004 | 65 | 321 | 0.9 | 0.0 | 0.00 | 0.00 | 0.00 | 96 | 1014.5 |
| 20260901104502 | 65 | 294 | 1.7 | 0.0 | 0.00 | 0.00 | 0.00 | 96 | 1014.5 |
| 20260901104001 | 65 | 286 | 1.7 | 0.0 | 0.00 | 0.00 | 0.00 | 96 | 1014.5 |
| 20260901103602 | 65 | 282 | 0.9 | 0.0 | 0.00 | 0.00 | 0.00 | 95 | 1014.4 |
| 20260901103100 | 65 | 150 | 0.0 | 0.0 | 0.00 | 0.00 | 0.00 | 95 | 1013.9 |
| 20260901102600 | 65 | 94 | 0.0 | 0.0 | 0.00 | 0.00 | 0.00 | 95 | 1014.2 |
| 20260901102101 | 65 | 81 | 0.9 | 0.0 | 0.00 | 0.00 | 0.00 | 95 | 1014.3 |
| 20260901101600 | 65 | 81 | 1.7 | 0.0 | 0.00 | 0.00 | 0.00 | 95 | 1014.3 |
| 20260901101059 | 65 | 96 | 2.6 | 0.0 | 0.00 | 0.00 | 0.00 | 95 | 1014.3 |
| 20260901100559 | 65 | 110 | 2.6 | 0.0 | 0.00 | 0.00 | 0.00 | 96 | 1014.1 |
| 20260901100101 | 65 | 27 | 3.5 | 0.0 | 0.00 | 0.00 | 0.00 | 95 | 1014.4 |
| 20260901095559 | 65 | 96 | 2.6 | 0.0 | 0.00 | 0.00 | 0.00 | 96 | 1014.0 |
| 20260901095059 | 65 | 15 | 0.9 | 0.0 | 0.00 | 0.00 | 0.00 | 95 | 1014.6 |
| 20260901094559 | 65 | 312 | 1.7 | 0.0 | 0.00 | 0.00 | 0.00 | 95 | 1014.9 |
| 20260901094058 | 65 | 108 | 2.6 | 0.0 | 0.00 | 0.00 | 0.00 | 95 | 1014.3 |
| 20260901093557 | 65 | 56 | 3.5 | 0.0 | 0.00 | 0.00 | 0.00 | 95 | 1014.0 |
| 20260901093101 | 65 | 355 | 3.5 | 0.0 | 0.00 | 0.00 | 0.00 | 96 | 1014.4 |
| 20260901092556 | 65 | 22 | 2.6 | 0.0 | 0.00 | 0.00 | 0.00 | 95 | 1014.0 |
| 20260901092056 | 65 | 76 | 0.9 | 0.0 | 0.00 | 0.00 | 0.00 | 94 | 1013.7 |
| 20260901091605 | 65 | 117 | 0.0 | 0.0 | 0.00 | 0.00 | 0.00 | 94 | 1013.7 |
| 20260901091055 | 65 | 122 | 0.9 | 0.0 | 0.00 | 0.00 | 0.00 | 94 | 1013.7 |
| 20260901090555 | 65 | 122 | 1.7 | 0.0 | 0.00 | 0.00 | 0.00 | 94 | 1013.7 |
| 20260901090057 | 65 | 121 | 2.6 | 0.0 | 0.00 | 0.00 | 0.00 | 94 | 1013.7 |
| 20260901085555 | 65 | 123 | 2.6 | 0.0 | 0.00 | 0.00 | 0.00 | 94 | 1013.5 |
| 20260901085054 | 65 | 100 | 1.7 | 0.0 | 0.00 | 0.00 | 0.00 | 94 | 1013.7 |
| 20260901084558 | 65 | 117 | 1.7 | 0.0 | 0.00 | 0.00 | 0.00 | 94 | 1013.7 |
| 20260901084054 | 65 | 117 | 1.7 | 0.0 | 0.00 | 0.00 | 0.00 | 94 | 1013.7 |
| 20260901083553 | 65 | 118 | 1.7 | 0.0 | 0.00 | 0.00 | 0.00 | 94 | 1013.8 |
| 20260901083052 | 65 | 119 | 1.7 | 0.0 | 0.00 | 0.00 | 0.00 | 94 | 1013.8 |
| 20260901082551 | 65 | 119 | 0.9 | 0.0 | 0.00 | 0.00 | 0.00 | 94 | 1013.9 |
| 20260901082050 | 65 | 119 | 0.0 | 0.0 | 0.00 | 0.00 | 0.00 | 94 | 1014.0 |
| 20260901081551 | 65 | 119 | 0.0 | 0.0 | 0.00 | 0.00 | 0.00 | 94 | 1014.1 |
| 20260901081051 | 65 | 119 | 0.0 | 0.0 | 0.00 | 0.00 | 0.00 | 93 | 1014.0 |
| 20260901080553 | 65 | 119 | 0.9 | 0.0 | 0.00 | 0.00 | 0.00 | 93 | 1014.1 |
| 20260901080050 | 65 | 119 | 2.6 | 0.0 | 0.00 | 0.00 | 0.00 | 93 | 1014.0 |
| 20260901075550 | 65 | 119 | 2.6 | 0.0 | 0.00 | 0.00 | 0.00 | 93 | 1014.1 |
| 20260901075048 | 65 | 121 | 2.6 | 0.0 | 0.00 | 0.00 | 0.00 | 93 | 1014.2 |
| 20260901074548 | 65 | 102 | 0.9 | 0.0 | 0.00 | 0.00 | 0.00 | 94 | 1014.2 |
| 20260901074049 | 64 | 80 | 0.0 | 0.0 | 0.00 | 0.00 | 0.00 | 94 | 1014.5 |
| 20260901073547 | 64 | 78 | 0.0 | 0.0 | 0.00 | 0.00 | 0.00 | 94 | 1014.6 |
| 20260901073046 | 64 | 77 | 0.9 | 0.0 | 0.00 | 0.00 | 0.00 | 94 | 1014.7 |
| 20260901072547 | 64 | 207 | 0.9 | 0.0 | 0.00 | 0.00 | 0.00 | 94 | 1014.7 |
| 20260901072049 | 64 | 207 | 0.9 | 0.0 | 0.00 | 0.00 | 0.00 | 94 | 1014.6 |
| 20260901071557 | 64 | 252 | 0.9 | 0.0 | 0.00 | 0.00 | 0.00 | 94 | 1014.6 |
| 20260901071050 | 64 | 252 | 0.9 | 0.0 | 0.00 | 0.00 | 0.00 | 94 | 1014.5 |
| 20260901070546 | 64 | 256 | 0.9 | 0.0 | 0.00 | 0.00 | 0.00 | 94 | 1014.8 |
| 20260901070046 | 64 | 257 | 0.9 | 0.0 | 0.00 | 0.00 | 0.00 | 94 | 1014.8 |
| 20260901065546 | 64 | 128 | 0.0 | 0.0 | 0.00 | 0.00 | 0.00 | 94 | 1014.7 |
| 20260901065046 | 64 | 128 | 0.0 | 0.0 | 0.00 | 0.00 | 0.00 | 94 | 1014.5 |
| 20260901064546 | 64 | 128 | 0.0 | 0.0 | 0.00 | 0.00 | 0.00 | 94 | 1014.5 |
| 20260901064045 | 64 | 128 | 0.0 | 0.0 | 0.00 | 0.00 | 0.00 | 94 | 1014.5 |
| 20260901063544 | 64 | 128 | 0.9 | 0.0 | 0.00 | 0.00 | 0.00 | 94 | 1014.6 |
| 20260901063043 | 64 | 128 | 1.7 | 0.0 | 0.00 | 0.00 | 0.00 | 94 | 1014.8 |
| 20260901062543 | 64 | 128 | 1.7 | 0.0 | 0.00 | 0.00 | 0.00 | 94 | 1014.9 |
| 20260901062045 | 64 | 128 | 2.6 | 0.0 | 0.00 | 0.00 | 0.00 | 94 | 1014.9 |
| 20260901061542 | 64 | 128 | 2.6 | 0.0 | 0.00 | 0.00 | 0.00 | 94 | 1014.9 |
| 20260901061042 | 64 | 128 | 2.6 | 0.0 | 0.00 | 0.00 | 0.00 | 94 | 1014.9 |
| 20260901060544 | 64 | 128 | 2.6 | 0.0 | 0.00 | 0.00 | 0.00 | 94 | 1015.0 |
| 20260901060041 | 64 | 128 | 2.6 | 0.0 | 0.00 | 0.00 | 0.00 | 94 | 1015.1 |
| 20260901055540 | 65 | 130 | 2.6 | 0.0 | 0.00 | 0.00 | 0.00 | 94 | 1015.3 |
| 20260901055039 | 64 | 130 | 3.5 | 0.0 | 0.00 | 0.00 | 0.00 | 94 | 1015.4 |
| 20260901054539 | 65 | 121 | 1.7 | 0.0 | 0.00 | 0.00 | 0.00 | 94 | 1015.5 |
| 20260901054040 | 64 | 127 | 0.0 | 0.0 | 0.00 | 0.00 | 0.00 | 94 | 1015.4 |
| 20260901053540 | 64 | 134 | 0.0 | 0.0 | 0.00 | 0.00 | 0.00 | 94 | 1015.5 |
| 20260901053043 | 64 | 140 | 0.0 | 0.0 | 0.00 | 0.00 | 0.00 | 94 | 1015.7 |
| 20260901052538 | 64 | 140 | 0.0 | 0.0 | 0.00 | 0.00 | 0.00 | 94 | 1015.7 |
| 20260901052038 | 64 | 140 | 0.0 | 0.0 | 0.00 | 0.00 | 0.00 | 94 | 1015.7 |
| 20260901051538 | 64 | 140 | 0.9 | 0.0 | 0.00 | 0.00 | 0.00 | 94 | 1015.7 |
| 20260901051038 | 64 | 140 | 1.7 | 0.0 | 0.00 | 0.00 | 0.00 | 94 | 1015.7 |
| 20260901050538 | 64 | 142 | 2.6 | 0.0 | 0.00 | 0.00 | 0.00 | 94 | 1015.5 |
| 20260901050038 | 64 | 143 | 3.5 | 0.0 | 0.00 | 0.00 | 0.00 | 94 | 1015.6 |
| 20260901045537 | 64 | 136 | 4.3 | 0.0 | 0.00 | 0.00 | 0.00 | 93 | 1015.3 |
| 20260901045036 | 64 | 126 | 2.6 | 0.0 | 0.00 | 0.00 | 0.00 | 93 | 1015.7 |
| 20260901044543 | 64 | 88 | 2.6 | 0.0 | 0.00 | 0.00 | 0.00 | 94 | 1016.1 |
| 20260901044036 | 64 | 92 | 1.7 | 0.0 | 0.00 | 0.00 | 0.00 | 94 | 1016.1 |
| 20260901043535 | 64 | 136 | 1.7 | 0.0 | 0.00 | 0.00 | 0.00 | 94 | 1016.1 |
| 20260901043033 | 64 | 137 | 1.7 | 0.0 | 0.00 | 0.00 | 0.00 | 94 | 1015.8 |
| 20260901042537 | 64 | 137 | 0.9 | 0.0 | 0.00 | 0.00 | 0.00 | 94 | 1015.7 |
| 20260901042033 | 64 | 138 | 1.7 | 0.0 | 0.00 | 0.00 | 0.00 | 94 | 1015.7 |
| 20260901041533 | 64 | 138 | 3.5 | 0.0 | 0.00 | 0.00 | 0.00 | 94 | 1015.6 |
| 20260901041035 | 64 | 138 | 2.6 | 0.0 | 0.00 | 0.00 | 0.00 | 94 | 1015.6 |
| 20260901040533 | 64 | 137 | 1.7 | 0.0 | 0.00 | 0.00 | 0.00 | 94 | 1015.7 |
| 20260901040031 | 64 | 137 | 1.7 | 0.0 | 0.00 | 0.00 | 0.00 | 93 | 1015.8 |
| 20260901035533 | 64 | 136 | 1.7 | 0.0 | 0.00 | 0.00 | 0.00 | 94 | 1015.8 |
| 20260901035031 | 64 | 135 | 1.7 | 0.0 | 0.00 | 0.00 | 0.00 | 93 | 1015.8 |
| 20260901034533 | 64 | 135 | 0.9 | 0.0 | 0.00 | 0.00 | 0.00 | 93 | 1015.8 |
| 20260901034034 | 64 | 135 | 0.9 | 0.0 | 0.00 | 0.00 | 0.00 | 93 | 1015.9 |
| 20260901033530 | 64 | 135 | 0.9 | 0.0 | 0.00 | 0.00 | 0.00 | 93 | 1015.8 |
| 20260901033031 | 64 | 135 | 0.9 | 0.0 | 0.00 | 0.00 | 0.00 | 93 | 1015.9 |
| 20260901032530 | 65 | 135 | 1.7 | 0.0 | 0.00 | 0.00 | 0.00 | 93 | 1016.0 |
| 20260901032033 | 65 | 135 | 1.7 | 0.0 | 0.00 | 0.00 | 0.00 | 93 | 1015.8 |
| 20260901031532 | 65 | 134 | 1.7 | 0.0 | 0.00 | 0.00 | 0.00 | 93 | 1016.0 |
| 20260901031029 | 65 | 132 | 1.7 | 0.0 | 0.00 | 0.00 | 0.00 | 93 | 1016.1 |
| 20260901030529 | 65 | 133 | 2.6 | 0.0 | 0.00 | 0.00 | 0.00 | 93 | 1016.1 |
| 20260901030029 | 65 | 134 | 3.5 | 0.0 | 0.00 | 0.00 | 0.00 | 93 | 1015.9 |
| 20260901025528 | 65 | 134 | 3.5 | 0.0 | 0.00 | 0.00 | 0.00 | 93 | 1016.0 |
| 20260901025029 | 65 | 153 | 3.5 | 0.0 | 0.00 | 0.00 | 0.00 | 94 | 1016.0 |
| 20260901024528 | 65 | 134 | 3.5 | 0.0 | 0.00 | 0.00 | 0.00 | 94 | 1016.1 |
| 20260901024029 | 65 | 134 | 2.6 | 0.0 | 0.00 | 0.00 | 0.00 | 94 | 1016.2 |
| 20260901023528 | 65 | 140 | 0.9 | 0.0 | 0.00 | 0.00 | 0.00 | 93 | 1016.2 |
| 20260901023038 | 65 | 140 | 0.0 | 0.0 | 0.00 | 0.00 | 0.00 | 93 | 1016.5 |
| 20260901022528 | 65 | 141 | 0.0 | 0.0 | 0.00 | 0.00 | 0.00 | 93 | 1016.5 |
| 20260901022027 | 65 | 141 | 0.9 | 0.0 | 0.00 | 0.00 | 0.00 | 93 | 1016.5 |
| 20260901021531 | 65 | 141 | 1.7 | 0.0 | 0.00 | 0.00 | 0.00 | 93 | 1016.5 |
| 20260901021027 | 65 | 141 | 1.7 | 0.0 | 0.00 | 0.00 | 0.00 | 93 | 1016.4 |
| 20260901020530 | 65 | 141 | 0.9 | 0.0 | 0.00 | 0.00 | 0.00 | 94 | 1016.5 |
| 20260901020026 | 65 | 141 | 0.0 | 0.0 | 0.00 | 0.00 | 0.00 | 93 | 1016.4 |
| 20260901015526 | 65 | 142 | 0.0 | 0.0 | 0.00 | 0.00 | 0.00 | 94 | 1016.5 |
| 20260901015026 | 65 | 142 | 0.0 | 0.0 | 0.00 | 0.00 | 0.00 | 93 | 1016.4 |
| 20260901014526 | 65 | 142 | 0.0 | 0.0 | 0.00 | 0.00 | 0.00 | 93 | 1016.5 |
| 20260901014026 | 65 | 142 | 0.0 | 0.0 | 0.00 | 0.00 | 0.00 | 94 | 1016.3 |
| 20260901013525 | 65 | 142 | 0.0 | 0.0 | 0.00 | 0.00 | 0.00 | 93 | 1016.3 |
| 20260901013028 | 65 | 142 | 0.0 | 0.0 | 0.00 | 0.00 | 0.00 | 94 | 1016.2 |
| 20260901012525 | 65 | 142 | 0.9 | 0.0 | 0.00 | 0.00 | 0.00 | 94 | 1016.3 |
| 20260901012025 | 65 | 142 | 1.7 | 0.0 | 0.00 | 0.00 | 0.00 | 94 | 1016.3 |
| 20260901011525 | 65 | 142 | 1.7 | 0.0 | 0.00 | 0.00 | 0.00 | 94 | 1016.2 |
| 20260901011025 | 65 | 143 | 1.7 | 0.0 | 0.00 | 0.00 | 0.00 | 93 | 1016.2 |
| 20260901010525 | 65 | 144 | 1.7 | 0.0 | 0.00 | 0.00 | 0.00 | 94 | 1016.1 |
| 20260901010025 | 65 | 144 | 2.6 | 0.0 | 0.00 | 0.00 | 0.00 | 94 | 1016.1 |
| 20260901005525 | 65 | 136 | 2.6 | 0.0 | 0.00 | 0.00 | 0.00 | 94 | 1016.1 |
| 20260901005026 | 65 | 143 | 2.6 | 0.0 | 0.00 | 0.00 | 0.00 | 93 | 1016.0 |
| 20260901004524 | 65 | 153 | 2.6 | 0.0 | 0.00 | 0.00 | 0.00 | 93 | 1016.0 |
| 20260901004023 | 65 | 162 | 2.6 | 0.0 | 0.00 | 0.00 | 0.00 | 93 | 1016.2 |
| 20260901003523 | 65 | 173 | 2.6 | 0.0 | 0.00 | 0.00 | 0.00 | 93 | 1016.2 |
| 20260901003024 | 65 | 157 | 2.6 | 0.0 | 0.00 | 0.00 | 0.00 | 93 | 1016.3 |
| 20260901002523 | 65 | 159 | 1.7 | 0.0 | 0.00 | 0.00 | 0.00 | 93 | 1016.1 |
| 20260901002024 | 65 | 155 | 0.9 | 0.0 | 0.00 | 0.00 | 0.00 | 93 | 1016.2 |
| 20260901001524 | 65 | 147 | 0.0 | 0.0 | 0.00 | 0.00 | 0.00 | 93 | 1016.2 |
| 20260901001022 | 65 | 140 | 0.0 | 0.0 | 0.00 | 0.00 | 0.00 | 93 | 1016.2 |
| 20260901000521 | 65 | 139 | 0.0 | 0.0 | 0.00 | 0.00 | 0.00 | 93 | 1016.2 |
| 20260901000021 | 65 | 139 | 0.9 | 0.0 | 0.00 | 0.00 | 0.00 | 92 | 1016.4 |
| 20260831235525 | 65 | 139 | 2.6 | 0.0 | 0.00 | 0.00 | 0.00 | 92 | 1016.4 |
| 20260831235021 | 65 | 134 | 3.5 | 0.0 | 0.00 | 0.00 | 0.00 | 92 | 1016.4 |
| 20260831234521 | 65 | 132 | 1.7 | 0.0 | 0.00 | 0.00 | 0.00 | 92 | 1016.4 |
| 20260831234021 | 65 | 130 | 1.7 | 0.0 | 0.00 | 0.00 | 0.00 | 92 | 1016.5 |
| 20260831233524 | 65 | 129 | 2.6 | 0.0 | 0.00 | 0.00 | 0.00 | 92 | 1016.4 |
| 20260831233020 | 65 | 127 | 3.5 | 0.0 | 0.00 | 0.00 | 0.00 | 92 | 1016.4 |
| 20260831232520 | 65 | 127 | 3.5 | 0.0 | 0.00 | 0.00 | 0.00 | 92 | 1016.4 |
| 20260831232019 | 65 | 130 | 3.5 | 0.0 | 0.00 | 0.00 | 0.00 | 92 | 1016.5 |